timestamp,surface_pressure_avg,surface_temp_avg,battery_voltage,lat,long
2019-10-11 00:00:00+00:00,296.5213,9.6,12.89,47.84626,-54.09684
2019-10-11 00:10:00+00:00,292.6164,9.6,12.81,47.84626,-54.09684
2019-10-11 00:20:00+00:00,288.2897,9.6,12.89,47.84626,-54.09684
2019-10-11 00:30:00+00:00,279.3397,9.6,12.97,47.84626,-54.09684
2019-10-11 00:40:00+00:00,269.7747,9.6,12.97,47.84626,-54.09684
2019-10-11 00:50:00+00:00,265.6598,9.6,12.97,47.84626,-54.09684
2019-10-11 01:00:00+00:00,262.4297,9.6,12.89,47.84626,-54.09684
2019-10-11 01:10:00+00:00,253.8831,9.6,12.81,47.84626,-54.09684
2019-10-11 01:20:00+00:00,244.0464,9.6,12.89,47.84626,-54.09684
2019-10-11 01:30:00+00:00,238.8148,9.6,12.89,47.84626,-54.09684
2019-10-11 01:40:00+00:00,234.9531,9.5,12.97,47.84626,-54.09684
2019-10-11 01:50:00+00:00,227.2148,9.42,12.97,47.84626,-54.09684
2019-10-11 02:00:00+00:00,220.6597,9.49,12.89,47.84626,-54.09684
2019-10-11 02:10:00+00:00,218.6598,9.5,12.81,47.84626,-54.09684
2019-10-11 02:20:00+00:00,214.8015,9.49,12.89,47.84626,-54.09684
2019-10-11 02:30:00+00:00,206.9048,9.47,12.89,47.84626,-54.09684
2019-10-11 02:40:00+00:00,204.5431,9.41,12.89,47.84626,-54.09684
2019-10-11 02:50:00+00:00,204.8898,9.4,12.89,47.84626,-54.09684
2019-10-11 03:00:00+00:00,201.6764,9.4,12.81,47.84626,-54.09684
2019-10-11 03:10:00+00:00,197.6114,9.4,12.81,47.84626,-54.09684
2019-10-11 03:20:00+00:00,198.2981,9.4,12.89,47.84626,-54.09684
2019-10-11 03:30:00+00:00,195.9065,9.42,12.89,47.84626,-54.09684
2019-10-11 03:40:00+00:00,189.2565,9.48,12.89,47.84626,-54.09684
2019-10-11 03:50:00+00:00,185.9815,9.49,12.89,47.84626,-54.09684
2019-10-11 04:00:00+00:00,189.6014,9.5,12.81,47.84626,-54.09684
2019-10-11 04:10:00+00:00,190.9831,9.5,12.73,47.84626,-54.09684
2019-10-11 04:20:00+00:00,187.8932,9.5,12.89,47.84626,-54.09684
2019-10-11 04:30:00+00:00,188.5731,9.5,12.89,47.84626,-54.09684
2019-10-11 04:40:00+00:00,192.0914,9.5,12.89,47.84626,-54.09684
2019-10-11 04:50:00+00:00,193.4315,9.5,12.89,47.84626,-54.09684
2019-10-11 05:00:00+00:00,196.1181,9.5,12.81,47.84626,-54.09684
2019-10-11 05:10:00+00:00,201.1981,9.5,12.73,47.84626,-54.09684
2019-10-11 05:20:00+00:00,205.5098,9.5,12.81,47.84626,-54.09684
2019-10-11 05:30:00+00:00,209.0581,9.5,12.89,47.84626,-54.09684
2019-10-11 05:40:00+00:00,214.8698,9.5,12.89,47.84626,-54.09684
2019-10-11 05:50:00+00:00,219.7164,9.5,12.89,47.84626,-54.09684
2019-10-11 06:00:00+00:00,219.5298,9.5,12.81,47.84626,-54.09684
2019-10-11 06:10:00+00:00,222.6998,9.5,12.73,47.84626,-54.09684
2019-10-11 06:20:00+00:00,228.9547,9.5,12.81,47.84626,-54.09684
2019-10-11 06:30:00+00:00,232.9698,9.5,12.89,47.84626,-54.09684
2019-10-11 06:40:00+00:00,236.4681,9.5,12.89,47.84626,-54.09684
2019-10-11 06:50:00+00:00,244.3714,9.5,12.89,47.84626,-54.09684
2019-10-11 07:00:00+00:00,246.033,9.5,12.81,47.84626,-54.09684
2019-10-11 07:10:00+00:00,245.2681,9.5,12.73,47.84626,-54.09684
2019-10-11 07:20:00+00:00,253.1531,9.51,12.81,47.84626,-54.09684
2019-10-11 07:30:00+00:00,264.7531,9.58,12.81,47.84626,-54.09684
2019-10-11 07:40:00+00:00,268.608,9.59,12.89,47.84626,-54.09684
2019-10-11 07:50:00+00:00,269.0731,9.58,12.89,47.84626,-54.09684
2019-10-11 08:00:00+00:00,274.9114,9.58,12.81,47.84626,-54.09684
2019-10-11 08:10:00+00:00,282.1797,9.57,12.73,47.84626,-54.09684
2019-10-11 08:20:00+00:00,284.3629,9.59,12.81,47.84626,-54.09684
2019-10-11 08:30:00+00:00,287.0497,9.59,12.81,47.84626,-54.09684
2019-10-11 08:40:00+00:00,293.0447,9.59,12.89,47.84626,-54.09684
2019-10-11 08:50:00+00:00,300.6312,9.6,12.89,47.84626,-54.09684
2019-10-11 09:00:00+00:00,306.538,9.6,12.81,47.84626,-54.09684
2019-10-11 09:10:00+00:00,312.8397,9.59,12.73,47.84626,-54.09684
2019-10-11 09:20:00+00:00,317.263,9.59,12.81,47.84626,-54.09684
2019-10-11 09:30:00+00:00,318.8464,9.6,12.81,47.84626,-54.09684
2019-10-11 09:40:00+00:00,319.7829,9.6,12.89,47.84626,-54.09684
2019-10-11 09:50:00+00:00,319.338,9.6,12.89,47.84626,-54.09684
2019-10-11 10:00:00+00:00,317.9563,9.6,12.81,47.84626,-54.09684
2019-10-11 10:10:00+00:00,320.0113,9.6,12.81,47.84626,-54.09684
2019-10-11 10:20:00+00:00,320.258,9.6,13.21,47.84626,-54.09684
2019-10-11 10:30:00+00:00,319.2796,9.6,13.6,47.84626,-54.09684
2019-10-11 10:40:00+00:00,319.563,9.6,14.0,47.84626,-54.09684
2019-10-11 10:50:00+00:00,323.6479,9.6,14.56,47.84626,-54.09684
2019-10-11 11:00:00+00:00,318.713,9.6,14.72,47.84626,-54.09684
2019-10-11 11:10:00+00:00,315.6979,9.59,15.75,47.84626,-54.09684
2019-10-11 11:20:00+00:00,317.7347,9.59,16.39,47.84626,-54.09684
2019-10-11 11:30:00+00:00,315.708,9.6,16.31,47.84626,-54.09684
2019-10-11 11:40:00+00:00,307.563,9.57,16.31,47.84626,-54.09684
2019-10-11 11:50:00+00:00,299.2113,9.5,16.39,47.84626,-54.09684
2019-10-11 12:00:00+00:00,296.8765,9.54,15.2,47.84626,-54.09684
2019-10-11 12:10:00+00:00,291.8113,9.59,15.04,47.84626,-54.09684
2019-10-11 12:20:00+00:00,288.0431,9.6,15.44,47.84626,-54.09684
2019-10-11 12:30:00+00:00,284.5665,9.59,15.44,47.84626,-54.09684
2019-10-11 12:40:00+00:00,281.8814,9.6,15.35,47.84626,-54.09684
2019-10-11 12:50:00+00:00,275.6897,9.58,15.27,47.84626,-54.09684
2019-10-11 13:00:00+00:00,268.0114,9.5,15.04,47.84626,-54.09684
2019-10-11 13:10:00+00:00,261.2514,9.5,15.04,47.84626,-54.09684
2019-10-11 13:20:00+00:00,254.2947,9.4,15.04,47.84626,-54.09684
2019-10-11 13:30:00+00:00,244.9964,9.4,15.04,47.84626,-54.09684
2019-10-11 13:40:00+00:00,236.7881,9.4,15.04,47.84626,-54.09684
2019-10-11 13:50:00+00:00,232.8814,9.4,14.96,47.84626,-54.09684
2019-10-11 14:00:00+00:00,230.4481,9.4,14.88,47.84626,-54.09684
2019-10-11 14:10:00+00:00,225.1081,9.4,14.8,47.84626,-54.09684
2019-10-11 14:20:00+00:00,218.5131,9.41,14.88,47.84626,-54.09684
2019-10-11 14:30:00+00:00,213.3998,9.48,14.88,47.84626,-54.09684
2019-10-11 14:40:00+00:00,208.6748,9.5,14.88,47.84626,-54.09684
2019-10-11 14:50:00+00:00,201.4798,9.5,14.88,47.84626,-54.09684
2019-10-11 15:00:00+00:00,195.6881,9.55,14.72,47.84626,-54.09684
2019-10-11 15:10:00+00:00,193.9065,9.6,14.72,47.84626,-54.09684
2019-10-11 15:20:00+00:00,191.0548,9.6,14.8,47.84626,-54.09684
2019-10-11 15:30:00+00:00,188.8748,9.6,14.72,47.84626,-54.09684
2019-10-11 15:40:00+00:00,193.2564,9.6,14.72,47.84626,-54.09684
2019-10-11 15:50:00+00:00,197.128,9.6,14.64,47.84626,-54.09684
2019-10-11 16:00:00+00:00,194.8197,9.6,14.56,47.84626,-54.09684
2019-10-11 16:10:00+00:00,193.8598,9.6,14.56,47.84626,-54.09684
2019-10-11 16:20:00+00:00,193.4065,9.61,14.64,47.84626,-54.09684
2019-10-11 16:30:00+00:00,190.7114,9.68,14.56,47.84626,-54.09684
2019-10-11 16:40:00+00:00,191.5831,9.7,14.56,47.84626,-54.09684
2019-10-11 16:50:00+00:00,193.8265,9.7,14.56,47.84626,-54.09684
2019-10-11 17:00:00+00:00,194.2848,9.7,14.48,47.84626,-54.09684
2019-10-11 17:10:00+00:00,196.9648,9.7,14.48,47.84626,-54.09684
2019-10-11 17:20:00+00:00,202.1898,9.7,14.56,47.84626,-54.09684
2019-10-11 17:30:00+00:00,207.573,9.7,14.48,47.84626,-54.09684
2019-10-11 17:40:00+00:00,209.9149,9.7,14.48,47.84626,-54.09684
2019-10-11 17:50:00+00:00,211.2298,9.7,14.4,47.84626,-54.09684
2019-10-11 18:00:00+00:00,212.3348,9.7,14.32,47.84626,-54.09684
2019-10-11 18:10:00+00:00,215.9781,9.7,14.24,47.84626,-54.09684
2019-10-11 18:20:00+00:00,219.3716,9.7,14.32,47.84626,-54.09684
2019-10-11 18:30:00+00:00,222.0498,9.7,14.24,47.84626,-54.09684
2019-10-11 18:40:00+00:00,226.9731,9.7,14.24,47.84626,-54.09684
2019-10-11 18:50:00+00:00,231.5897,9.7,14.16,47.84626,-54.09684
2019-10-11 19:00:00+00:00,237.1497,9.7,14.08,47.84626,-54.09684
2019-10-11 19:10:00+00:00,246.6631,9.7,13.92,47.84626,-54.09684
2019-10-11 19:20:00+00:00,254.2431,9.7,14.0,47.84626,-54.09684
2019-10-11 19:30:00+00:00,257.0497,9.7,13.92,47.84626,-54.09684
2019-10-11 19:40:00+00:00,261.5497,9.7,13.92,47.84626,-54.09684
2019-10-11 19:50:00+00:00,267.683,9.7,13.92,47.84626,-54.09684
2019-10-11 20:00:00+00:00,273.3231,9.7,13.76,47.84626,-54.09684
2019-10-11 20:10:00+00:00,276.0248,9.7,13.6,47.84626,-54.09684
2019-10-11 20:20:00+00:00,282.6714,9.71,13.6,47.84626,-54.09684
2019-10-11 20:30:00+00:00,290.358,9.73,13.6,47.84626,-54.09684
2019-10-11 20:40:00+00:00,296.7347,9.76,13.53,47.84626,-54.09684
2019-10-11 20:50:00+00:00,300.9597,9.74,13.44,47.84626,-54.09684
2019-10-11 21:00:00+00:00,310.283,9.7,13.37,47.84626,-54.09684
2019-10-11 21:10:00+00:00,317.1947,9.7,13.21,47.84626,-54.09684
2019-10-11 21:20:00+00:00,318.3347,9.7,13.21,47.84626,-54.09684
2019-10-11 21:30:00+00:00,323.023,9.7,13.21,47.84626,-54.09684
2019-10-11 21:40:00+00:00,332.0047,9.7,13.13,47.84626,-54.09684
2019-10-11 21:50:00+00:00,335.0331,9.7,13.13,47.84626,-54.09684
2019-10-11 22:00:00+00:00,334.0429,9.7,13.05,47.84626,-54.09684
2019-10-11 22:10:00+00:00,339.8479,9.7,12.89,47.84626,-54.09684
2019-10-11 22:20:00+00:00,344.2897,9.7,12.97,47.84626,-54.09684
2019-10-11 22:30:00+00:00,343.2478,9.7,12.97,47.84626,-54.09684
2019-10-11 22:40:00+00:00,345.6913,9.7,12.97,47.84626,-54.09684
2019-10-11 22:50:00+00:00,349.2495,9.7,13.05,47.84626,-54.09684
2019-10-11 23:00:00+00:00,346.3746,9.7,12.97,47.84626,-54.09684
2019-10-11 23:10:00+00:00,343.5946,9.7,12.89,47.84626,-54.09684
2019-10-11 23:20:00+00:00,342.4548,9.7,12.97,47.84626,-54.09684
2019-10-11 23:30:00+00:00,338.903,9.7,12.97,47.84626,-54.09684
2019-10-11 23:40:00+00:00,333.1746,9.7,12.97,47.84626,-54.09684
2019-10-11 23:50:00+00:00,328.5178,9.7,12.97,47.84626,-54.09684
